Tracking 29489 objects as of 10-Sep-2024
HD Live streaming from Space Station
objects crossing your sky now

FENGYUN 1C DEB

Track FENGYUN 1C DEB now!
10-day predictions


NORAD ID: 30391
Int'l Code: 1999-025ADE
Perigee: 801.0 km
Apogee: 912.0 km
Inclination: 98.8 °
Period: 101.9 minutes
Semi major axis: 7227 km
RCS: 0.0444 m2 (small)
Launch date: May 10, 1999
Source: People's Republic of China (PRC)
Launch site: Taiyaun Space Center, China (TSC)

Note: This is SATELLITE DEBRIS
Your satellite tracking list
Your tracking list is empty




NASA's NSSDC Master Catalog

Two Line Element Set (TLE):
1 30391U 99025ADE 24253.62809778  .00007209  00000-0  37831-2 0  9996
2 30391  98.8245 299.9007 0076779 130.6949 358.5257 14.12933139903865
Source of the keplerian elements: AFSPC